Wind_Speed
72 72 76 79 84 83 88 96 102 108 105 99 88 77 66 58 51 40 34 39 46 51 54 60 65 69 73 77 84 94 94 92 88 83 77 68 70 68 68 67 68 60 56 51 46 43 37
71 74 73 85 83 89 93 98 106 111 110 107 93 81 68 62 52 38 28 29 38 49 54 60 66 70 73 81 88 95 93 91 89 88 79 75 73 67 70 71 70 65 56 51 51 45 39
71 74 78 87 86 94 97 102 109 114 116 111 96 85 70 64 51 36 23 21 29 43 54 61 67 72 78 82 89 98 92 92 90 89 79 77 84 73 73 75 74 67 60 54 50 48 41
70 74 83 84 89 94 96 104 109 117 117 115 98 89 72 65 49 35 21 16 22 34 48 63 68 75 81 84 85 95 94 92 94 92 86 85 88 85 72 79 78 71 64 56 55 48 42
71 76 81 85 92 94 97 106 110 118 118 115 103 89 73 67 50 35 20 11 17 28 43 62 71 75 78 84 88 92 93 94 95 96 92 91 87 87 75 83 77 69 59 53 53 51 46
72 80 84 88 92 94 97 108 114 120 120 117 108 90 76 70 53 37 22 10 12 24 42 60 74 74 78 86 87 90 91 94 97 102 98 92 90 81 81 80 66 56 52 56 54 52 48
78 83 83 89 94 95 100 105 113 122 127 121 114 95 81 74 57 41 27 11 6 22 38 57 74 78 77 83 88 97 97 95 102 106 95 89 91 79 70 75 73 66 65 66 64 60 55
76 77 83 88 92 102 101 106 112 122 129 125 118 103 88 76 63 47 32 16 3 17 36 53 71 77 78 83 91 98 100 99 106 107 98 90 88 86 80 75 75 74 74 69 67 63 60
72 77 85 90 93 101 102 104 110 119 125 128 123 111 92 79 69 52 37 21 7 12 32 49 68 76 77 82 92 100 99 100 105 107 94 84 90 90 89 86 82 82 76 71 65 64 64
72 80 86 91 94 100 105 108 110 115 123 130 124 117 99 85 72 57 41 25 10 8 27 44 59 74 74 81 87 99 104 102 104 104 99 94 102 97 92 84 83 81 77 77 74 70 66
75 82 86 89 96 102 104 108 112 113 118 125 129 119 108 87 74 63 46 29 14 6 22 40 56 72 75 78 84 95 98 100 102 105 99 93 89 93 87 78 84 84 85 84 80 75 69
78 82 83 87 93 99 104 112 112 114 119 122 129 126 114 95 78 67 51 36 20 5 16 35 51 71 75 78 89 96 100 101 99 106 100 98 94 101 88 88 92 94 95 89 84 80 70
75 80 83 86 92 99 105 111 114 114 119 122 125 130 118 103 83 71 61 40 26 9 9 32 48 67 77 80 86 94 95 99 101 105 104 104 101 103 100 95 94 94 96 88 85 79 69
74 78 81 85 92 99 104 107 116 115 116 121 122 128 128 113 91 75 63 48 33 15 4 24 44 62 76 81 85 89 92 95 99 107 105 104 106 107 102 94 81 77 85 81 74 71 68
74 78 81 87 92 100 103 109 112 117 119 121 124 125 131 127 101 82 64 61 40 23 4 14 38 56 72 78 81 87 89 95 102 110 110 104 102 104 103 96 92 90 84 83 82 81 76
73 77 80 88 91 98 102 108 112 116 119 122 123 124 128 130 112 92 74 60 48 32 12 6 31 51 68 77 81 84 93 98 100 105 107 106 103 102 101 109 109 102 92 91 86 87 76
72 77 78 87 92 98 101 105 110 116 119 121 120 124 124 125 121 104 83 64 56 38 22 2 19 45 66 76 81 85 92 93 96 98 106 104 102 102 103 98 104 102 95 89 87 89 82
71 75 79 85 91 97 99 103 109 115 115 116 117 120 122 121 124 121 100 71 56 49 30 10 12 36 57 75 79 84 88 90 92 98 101 106 104 104 100 96 102 101 95 91 86 80 75
71 76 82 87 92 96 100 102 108 111 113 115 116 118 123 117 120 121 109 89 68 52 41 21 3 24 47 68 83 82 85 93 93 99 98 109 108 107 106 105 106 104 98 91 88 86 86
74 77 82 87 92 94 99 101 107 108 112 115 119 118 123 118 122 120 120 102 74 56 42 29 12 13 37 53 76 83 84 91 93 98 105 104 113 108 103 98 96 92 103 98 95 96 88
74 77 81 86 89 93 98 101 104 108 110 114 121 116 122 123 121 124 115 112 96 60 46 32 18 3 23 44 63 81 82 85 93 96 99 103 107 112 109 105 104 100 99 107 106 98 97
72 77 79 86 88 91 97 102 105 107 111 114 119 118 121 124 126 122 116 115 104 80 50 37 23 8 12 34 47 70 80 86 90 94 97 103 105 115 112 107 106 104 104 102 97 109 107
69 73 79 85 88 93 99 102 103 108 110 115 118 120 124 125 128 121 119 114 113 90 65 39 28 15 2 19 39 53 74 83 86 90 94 99 103 110 118 112 110 111 104 102 97 96 104
71 75 82 85 90 94 97 102 104 108 110 113 119 123 126 128 130 125 121 116 108 105 77 47 30 19 9 8 25 44 58 77 86 89 91 97 101 105 115 121 117 110 108 106 105 104 101
75 79 84 86 89 90 96 100 104 107 111 114 119 124 127 129 132 129 122 118 113 102 82 60 33 23 13 6 14 29 47 63 82 90 92 94 98 103 110 122 121 117 113 113 112 110 106
81 83 83 88 88 91 94 98 103 108 108 115 118 124 126 128 129 129 126 123 119 106 82 63 38 25 17 10 10 18 32 50 65 83 94 94 95 101 105 113 122 123 121 120 119 116 109
82 83 85 87 88 93 95 101 103 107 110 115 119 122 126 127 127 133 126 123 122 116 95 65 43 26 18 13 10 13 23 36 52 65 82 94 95 96 101 107 114 122 126 126 124 120 118
82 86 86 87 92 95 98 101 105 108 114 117 119 123 126 129 129 131 130 123 122 119 102 75 53 32 19 17 13 13 17 27 40 54 67 80 94 97 98 103 109 113 121 127 127 123 121
83 86 88 90 91 97 101 103 105 109 114 117 120 126 125 128 130 133 132 128 122 120 107 81 58 41 26 17 15 16 17 20 30 44 57 73 85 99 100 100 101 106 114 119 125 127 125
Wind_Direction
349 352 353 349 346 350 350 355 355 356 352 350 344 338 335 331 327 312 283 258 243 235 222 217 217 215 211 211 212 213 213 211 211 210 208 202 193 192 201 205 208 208 211 211 216 219 220
354 355 351 351 348 349 354 357 0 359 356 354 346 345 342 338 334 321 290 258 237 229 218 210 212 211 209 206 209 209 211 210 208 205 205 198 196 193 205 209 201 205 206 207 209 214 215
355 352 351 352 349 352 356 359 2 2 1 357 351 350 347 344 340 328 303 263 236 224 216 204 206 206 206 206 205 204 208 206 204 203 200 197 196 197 202 205 200 202 201 203 208 208 213
353 349 349 351 352 353 358 2 3 5 3 359 355 352 351 349 347 336 318 277 239 221 212 200 201 204 205 204 206 204 205 202 201 201 198 194 195 197 203 203 201 203 202 205 212 209 217
352 350 351 350 351 355 3 6 6 6 6 4 0 355 356 356 355 347 333 291 237 216 205 199 198 201 202 202 203 203 201 200 199 200 196 194 190 196 201 203 201 199 197 199 202 212 209
352 351 351 351 354 356 7 10 10 7 8 7 3 358 1 2 360 357 349 322 230 209 200 198 196 198 198 200 200 201 199 198 198 199 199 196 192 196 197 200 203 200 199 203 206 210 209
352 353 354 358 357 0 6 10 11 10 10 8 5 1 5 5 5 4 360 349 234 199 199 196 193 197 196 197 197 196 197 199 197 199 198 196 194 195 195 202 207 203 205 202 205 207 206
352 356 355 358 359 2 5 10 12 12 12 12 8 5 4 7 8 8 6 1 294 194 198 196 194 196 193 195 195 195 196 198 197 198 198 195 189 195 199 200 203 209 205 203 200 202 205
356 354 353 354 358 2 5 8 12 14 14 14 13 7 6 9 9 12 7 5 328 202 199 198 195 196 192 195 195 197 197 196 197 198 196 194 191 196 199 200 202 204 202 202 203 206 207
355 355 356 356 358 2 4 5 11 15 15 14 15 12 11 8 11 12 10 9 346 225 198 198 196 198 194 196 196 198 196 195 197 196 196 191 194 197 198 201 204 201 208 206 205 207 209
355 355 354 358 357 0 2 5 7 13 14 15 16 16 14 10 12 14 13 8 5 271 203 197 195 197 196 195 196 199 197 198 197 196 196 193 196 193 198 199 208 205 208 205 205 207 208
357 355 356 356 358 2 5 6 7 9 12 15 16 17 15 13 13 14 15 13 8 332 209 195 196 195 195 195 196 198 197 199 198 196 196 194 196 193 194 202 208 208 207 204 205 206 205
359 357 357 357 359 2 4 7 8 7 11 13 16 17 18 15 14 16 14 16 11 360 222 201 196 196 195 196 198 199 199 199 198 196 197 196 198 197 197 203 208 210 206 205 208 208 207
360 358 357 357 358 360 2 4 6 8 9 11 15 16 19 17 15 16 16 18 14 9 250 207 198 198 197 198 198 200 201 201 198 197 200 198 201 199 201 202 209 214 216 211 213 209 206
359 359 357 357 358 1 4 4 9 10 10 11 13 15 17 18 16 15 17 19 15 13 10 209 201 200 199 199 200 199 201 200 198 198 200 201 202 205 204 206 210 212 214 216 210 212 210
360 357 358 358 359 2 3 4 8 8 8 9 12 14 16 18 18 15 17 19 19 17 18 189 203 202 203 202 200 202 201 200 198 200 201 203 201 205 206 208 208 210 216 216 214 215 211
356 356 357 358 360 3 3 5 4 6 7 8 10 14 15 15 19 18 14 17 18 22 19 124 203 204 204 204 203 204 204 202 199 201 202 206 205 207 209 212 206 209 210 212 211 211 212
353 355 354 356 358 1 2 3 3 4 6 8 9 11 12 13 14 20 17 14 19 19 23 16 184 205 205 207 206 206 206 205 202 204 204 206 209 209 212 211 210 212 210 212 215 215 215
350 353 353 355 358 1 1 2 4 5 7 8 8 11 11 12 13 15 20 16 14 16 18 20 196 199 206 208 209 208 203 207 207 207 205 207 211 210 212 213 212 212 215 213 210 213 215
347 349 351 355 357 359 360 2 4 4 6 7 7 9 10 10 11 12 14 19 16 13 16 19 15 198 205 211 211 212 207 206 209 209 209 208 210 213 214 216 218 217 216 216 218 212 215
346 348 350 352 355 357 357 358 2 3 5 5 7 6 7 8 8 9 11 14 17 16 10 17 21 300 204 208 213 213 211 209 210 211 210 212 210 214 215 214 216 216 216 217 219 219 214
346 347 349 350 355 356 356 358 360 2 2 4 3 4 7 7 8 8 9 9 12 13 13 5 15 26 226 209 213 218 215 213 213 213 212 212 213 212 214 215 215 217 217 219 222 222 218
349 348 348 349 349 351 353 356 359 1 1 3 3 4 6 4 5 6 8 9 10 11 10 8 1 8 263 220 215 215 219 218 217 217 215 214 215 213 214 215 216 216 219 222 222 222 223
344 344 345 347 349 350 350 353 357 359 0 360 2 2 3 3 3 3 5 6 8 8 7 5 1 351 343 233 224 217 216 219 219 220 219 216 216 217 217 217 217 217 219 221 222 223 222
340 342 345 345 347 349 350 351 354 356 357 359 359 360 359 1 1 1 3 3 5 5 7 6 358 351 332 292 234 227 220 216 217 221 222 221 219 219 219 220 219 219 220 223 225 225 225
336 340 345 345 348 349 349 351 351 354 353 356 357 358 358 359 358 359 1 0 1 2 5 5 359 349 339 306 273 236 227 223 219 219 221 223 222 222 221 221 223 222 222 224 226 227 227
333 335 342 344 347 348 348 352 351 354 353 353 354 355 356 357 356 357 359 359 360 0 0 1 3 351 336 308 273 246 237 228 224 221 222 221 223 224 224 223 223 224 225 226 227 228 228
335 337 338 340 344 346 346 349 348 351 350 352 352 353 354 355 356 355 358 357 358 358 358 358 1 359 344 321 289 257 238 238 228 221 222 224 222 223 225 226 225 225 227 228 230 229 229
335 333 336 339 343 343 343 347 346 349 347 351 351 352 353 353 353 353 355 356 355 357 356 355 356 359 353 328 299 268 253 237 231 230 222 221 224 225 224 227 228 227 228 229 231 232 232
Height
10676 10663 10647 10631 10612 10592 10569 10542 10512 10482 10451 10420 10392 10368 10348 10330 10315 10303 10297 10295 10298 10307 10321 10336 10352 10370 10389 10410 10428 10443 10459 10485 10505 10527 10548 10567 10583 10599 10615 10627 10638 10643 10653 10667 10677 10686 10692
10669 10654 10640 10623 10602 10582 10557 10530 10501 10470 10438 10406 10376 10352 10330 10311 10295 10285 10279 10277 10279 10287 10302 10320 10335 10356 10376 10390 10403 10425 10450 10471 10493 10512 10533 10553 10572 10584 10600 10613 10624 10629 10644 10657 10668 10679 10685
10662 10648 10632 10614 10595 10572 10546 10520 10490 10461 10427 10394 10363 10339 10317 10297 10281 10271 10265 10263 10265 10271 10286 10306 10321 10341 10357 10371 10387 10405 10431 10455 10480 10503 10525 10540 10553 10571 10590 10601 10608 10619 10635 10649 10661 10671 10678
10656 10641 10626 10608 10587 10565 10539 10514 10484 10454 10422 10389 10355 10331 10309 10288 10271 10261 10255 10253 10254 10261 10274 10292 10307 10322 10334 10357 10374 10392 10417 10444 10466 10489 10509 10524 10540 10557 10572 10589 10598 10610 10627 10644 10656 10665 10673
10651 10636 10620 10601 10582 10559 10534 10507 10479 10452 10420 10386 10353 10327 10303 10281 10264 10255 10249 10246 10247 10253 10264 10279 10292 10307 10331 10347 10365 10385 10410 10435 10456 10474 10492 10509 10527 10548 10562 10578 10590 10606 10630 10642 10650 10660 10667
10646 10630 10613 10595 10577 10554 10529 10505 10476 10447 10415 10381 10349 10322 10299 10277 10261 10251 10245 10242 10242 10246 10254 10265 10279 10299 10319 10332 10355 10377 10404 10425 10444 10458 10476 10501 10520 10541 10556 10574 10602 10618 10629 10636 10643 10652 10660
10640 10625 10608 10591 10571 10550 10526 10501 10473 10445 10413 10379 10346 10318 10297 10277 10261 10249 10243 10239 10240 10242 10250 10257 10268 10283 10307 10326 10349 10366 10389 10410 10428 10444 10472 10497 10519 10548 10567 10580 10590 10602 10610 10620 10629 10640 10648
10636 10620 10604 10588 10569 10547 10524 10500 10471 10443 10414 10382 10350 10320 10298 10279 10262 10249 10242 10239 10237 10241 10245 10253 10266 10279 10299 10318 10341 10359 10377 10396 10413 10435 10462 10486 10521 10533 10543 10559 10575 10589 10598 10607 10616 10626 10635
10632 10617 10600 10584 10566 10546 10523 10500 10473 10444 10418 10387 10356 10327 10301 10283 10265 10252 10244 10240 10238 10240 10244 10252 10263 10277 10297 10314 10332 10348 10366 10386 10406 10430 10463 10491 10510 10519 10533 10548 10564 10576 10587 10599 10610 10617 10626
10630 10614 10597 10581 10564 10544 10523 10501 10475 10447 10421 10394 10364 10334 10307 10288 10271 10257 10248 10242 10240 10240 10244 10253 10265 10278 10296 10307 10328 10341 10355 10376 10398 10428 10452 10472 10483 10505 10522 10539 10552 10566 10575 10586 10595 10605 10617
10627 10612 10594 10578 10562 10544 10523 10502 10480 10452 10426 10401 10373 10345 10318 10297 10279 10263 10252 10246 10242 10243 10245 10251 10260 10274 10291 10308 10326 10339 10359 10377 10397 10419 10443 10473 10483 10500 10517 10534 10543 10552 10560 10570 10580 10593 10607
10625 10609 10593 10576 10560 10543 10523 10502 10481 10458 10432 10407 10383 10354 10324 10301 10288 10271 10258 10250 10245 10245 10247 10252 10259 10268 10288 10304 10318 10333 10349 10371 10393 10415 10441 10460 10471 10482 10501 10514 10523 10533 10545 10556 10567 10581 10602
10623 10607 10592 10576 10560 10542 10523 10503 10483 10460 10436 10412 10389 10364 10336 10313 10292 10277 10264 10254 10249 10247 10248 10250 10257 10266 10282 10298 10315 10331 10348 10364 10385 10408 10424 10443 10456 10472 10484 10494 10507 10521 10531 10545 10559 10583 10611
10621 10605 10591 10576 10559 10542 10523 10504 10484 10461 10440 10416 10394 10372 10345 10322 10299 10285 10275 10261 10253 10250 10250 10254 10259 10266 10277 10290 10308 10327 10345 10361 10383 10402 10419 10435 10447 10463 10481 10497 10527 10537 10538 10562 10583 10598 10606
10618 10604 10590 10575 10559 10542 10524 10503 10485 10464 10443 10420 10397 10377 10353 10329 10307 10290 10281 10267 10259 10254 10253 10257 10261 10267 10277 10290 10307 10324 10339 10355 10374 10389 10406 10427 10448 10462 10481 10491 10499 10513 10531 10552 10562 10573 10584
10617 10603 10589 10574 10559 10542 10524 10507 10487 10468 10447 10426 10404 10382 10360 10342 10319 10301 10283 10278 10267 10258 10256 10258 10263 10267 10276 10289 10303 10318 10329 10342 10365 10384 10403 10417 10436 10451 10464 10473 10482 10507 10518 10531 10547 10565 10583
10614 10602 10588 10573 10559 10544 10526 10508 10489 10472 10451 10432 10414 10392 10372 10354 10331 10308 10294 10283 10273 10266 10260 10259 10265 10269 10275 10284 10298 10312 10324 10342 10362 10381 10396 10413 10430 10439 10449 10464 10487 10494 10507 10525 10539 10552 10572
10612 10599 10586 10573 10559 10545 10527 10510 10492 10474 10458 10439 10422 10402 10384 10364 10342 10322 10303 10289 10281 10272 10266 10263 10264 10271 10277 10285 10296 10310 10324 10341 10361 10372 10390 10405 10419 10431 10450 10464 10473 10483 10493 10510 10528 10555 10572
10609 10597 10584 10571 10558 10543 10528 10511 10496 10480 10464 10446 10428 10407 10390 10374 10354 10334 10317 10297 10284 10277 10272 10267 10266 10270 10277 10284 10291 10303 10323 10337 10349 10365 10379 10395 10407 10421 10429 10441 10454 10472 10493 10512 10519 10532 10545
10607 10595 10581 10568 10556 10542 10528 10513 10497 10481 10466 10449 10433 10414 10399 10381 10360 10341 10321 10308 10295 10285 10279 10273 10269 10270 10275 10282 10291 10301 10316 10327 10341 10352 10367 10380 10396 10413 10431 10454 10467 10483 10494 10504 10510 10515 10540
10603 10591 10578 10565 10554 10539 10526 10513 10498 10483 10467 10451 10433 10420 10403 10384 10367 10349 10333 10315 10298 10290 10282 10279 10274 10271 10274 10280 10288 10295 10311 10322 10331 10342 10356 10373 10388 10402 10414 10427 10440 10456 10466 10478 10487 10509 10520
10599 10588 10576 10563 10551 10538 10525 10512 10497 10482 10464 10450 10437 10420 10404 10388 10371 10354 10337 10321 10306 10292 10285 10279 10277 10274 10273 10277 10284 10292 10303 10310 10319 10332 10346 10359 10372 10384 10398 10412 10425 10436 10449 10459 10474 10486 10495
10595 10584 10572 10560 10548 10536 10524 10511 10497 10481 10465 10451 10436 10420 10405 10389 10376 10362 10348 10332 10314 10300 10288 10279 10274 10273 10273 10274 10277 10283 10292 10304 10314 10322 10334 10347 10357 10372 10386 10396 10407 10416 10438 10451 10464 10469 10476
10589 10580 10569 10558 10546 10534 10520 10508 10495 10480 10465 10449 10433 10417 10402 10389 10375 10361 10346 10333 10318 10305 10288 10279 10272 10269 10268 10267 10269 10273 10280 10289 10301 10310 10321 10331 10343 10356 10370 10376 10381 10411 10417 10428 10436 10440 10454
10582 10575 10566 10555 10543 10531 10517 10504 10491 10477 10463 10448 10433 10418 10402 10387 10372 10358 10342 10329 10317 10305 10292 10279 10270 10265 10262 10262 10262 10264 10267 10274 10281 10293 10302 10314 10326 10336 10346 10359 10377 10391 10400 10404 10409 10423 10437
10576 10568 10560 10549 10537 10526 10513 10499 10487 10473 10459 10445 10432 10417 10402 10388 10373 10360 10346 10329 10313 10300 10289 10280 10268 10260 10256 10256 10253 10255 10259 10262 10267 10275 10284 10296 10308 10318 10331 10341 10357 10371 10378 10382 10390 10402 10419
10571 10560 10551 10542 10530 10519 10508 10495 10482 10469 10456 10442 10429 10415 10400 10386 10370 10358 10343 10329 10314 10299 10285 10275 10265 10257 10251 10248 10248 10247 10247 10250 10256 10262 10269 10278 10291 10302 10310 10320 10332 10346 10352 10360 10366 10389 10395
10566 10555 10544 10534 10522 10511 10501 10489 10477 10463 10450 10437 10424 10411 10397 10382 10369 10354 10338 10325 10312 10295 10282 10269 10259 10252 10246 10240 10239 10240 10238 10240 10244 10249 10256 10263 10271 10281 10290 10301 10314 10325 10332 10340 10350 10365 10376
10560 10549 10537 10524 10514 10503 10491 10481 10469 10456 10443 10432 10419 10405 10393 10378 10365 10350 10334 10320 10309 10294 10276 10263 10254 10247 10241 10235 10231 10230 10230 10231 10233 10237 10240 10246 10252 10261 10270 10281 10292 10302 10310 10318 10330 10348 10357